DW2633 Weather Reports


time (UTC)temp
C
wind
direction
speed
KPH
gust
KPH
rain 1hr
cm
rain 24hr
cm
rain mn
cm
humidity
%
barometer
mb
20260508122002 6 251 17.7 0.0 0.00 0.00 0.00 78 1010.2
20260508121501 6 234 16.1 0.0 0.00 0.00 0.00 78 1010.2
20260508121059 6 217 14.5 0.0 0.00 0.00 0.00 79 1010.1
20260508120600 5 265 14.5 0.0 0.00 0.00 0.00 79 1010.2
20260508120058 5 243 12.9 0.0 0.00 0.00 0.00 80 1010.3
20260508115557 5 249 12.9 0.0 0.00 0.00 0.00 80 1010.3
20260508115056 5 252 9.7 0.0 0.00 0.00 0.00 80 1010.3
20260508114555 5 229 8.0 0.0 0.00 0.00 0.00 80 1010.3
20260508114057 5 226 6.4 0.0 0.00 0.00 0.00 80 1010.2
20260508113553 5 223 4.8 0.0 0.00 0.00 0.00 80 1010.2
20260508113101 5 223 4.8 0.0 0.00 0.00 0.00 80 1010.2
20260508112552 4 225 8.0 0.0 0.00 0.00 0.00 80 1010.2
20260508112055 4 242 6.4 0.0 0.00 0.00 0.00 79 1010.2
20260508111552 4 222 3.2 0.0 0.00 0.00 0.00 79 1010.2
20260508111055 4 226 3.2 0.0 0.00 0.00 0.00 79 1010.1
20260508110554 4 229 3.2 0.0 0.00 0.00 0.00 79 1010.1
20260508110051 4 225 6.4 0.0 0.00 0.00 0.00 79 1010.1
20260508105550 4 227 4.8 0.0 0.00 0.00 0.00 79 1010.0
20260508105048 4 180 6.4 0.0 0.00 0.00 0.00 79 1009.9
20260508104549 4 225 6.4 0.0 0.00 0.00 0.00 80 1009.9
20260508104049 4 225 9.7 0.0 0.00 0.00 0.00 81 1009.8
20260508103548 4 228 16.1 0.0 0.00 0.00 0.00 83 1009.8
20260508103050 3 250 16.1 0.0 0.00 0.00 0.00 84 1009.8
20260508102547 3 260 14.5 0.0 0.00 0.00 0.00 84 1009.8
20260508102046 3 242 9.7 0.0 0.00 0.00 0.00 83 1009.7
20260508101546 3 240 9.7 0.0 0.00 0.00 0.00 83 1009.7
20260508101046 3 257 8.0 0.0 0.00 0.00 0.00 84 1009.6
20260508100549 3 294 4.8 0.0 0.00 0.00 0.00 82 1009.6
20260508100045 3 258 4.8 0.0 0.00 0.00 0.00 85 1009.5
20260508095545 3 308 3.2 0.0 0.00 0.00 0.00 85 1009.6
20260508095044 3 325 1.6 0.0 0.00 0.00 0.00 86 1009.6
20260508094606 3 339 1.6 0.0 0.00 0.00 0.00 85 1009.5
20260508094046 2 163 1.6 0.0 0.00 0.00 0.00 85 1009.4
20260508093542 2 161 3.2 0.0 0.00 0.00 0.00 86 1009.2
20260508093043 2 109 3.2 0.0 0.00 0.00 0.00 86 1009.2
20260508092542 2 82 3.2 0.0 0.00 0.00 0.00 85 1009.2
20260508092040 2 146 3.2 0.0 0.00 0.00 0.00 86 1009.0
20260508091542 2 133 1.6 0.0 0.00 0.00 0.00 86 1009.1
20260508091040 2 148 3.2 0.0 0.00 0.00 0.00 86 1009.0
20260508090539 2 150 3.2 0.0 0.00 0.00 0.00 86 1009.1
20260508090043 2 136 0.0 0.0 0.00 0.00 0.00 86 1008.9
20260508085539 2 144 1.6 0.0 0.00 0.00 0.00 85 1009.0
20260508085041 2 144 1.6 0.0 0.00 0.00 0.00 85 1008.9
20260508084538 2 143 0.0 0.0 0.00 0.00 0.00 85 1008.9
20260508084038 2 150 1.6 0.0 0.00 0.00 0.00 85 1008.9
20260508083542 2 150 4.8 0.0 0.00 0.00 0.00 85 1008.7
20260508083036 2 148 6.4 0.0 0.00 0.00 0.00 85 1008.6
20260508082537 2 118 4.8 0.0 0.00 0.00 0.00 85 1008.6
20260508082037 2 121 6.4 0.0 0.00 0.00 0.00 86 1008.7
20260508081558 2 128 4.8 0.0 0.00 0.00 0.00 86 1008.6
20260508081035 2 138 3.2 0.0 0.00 0.00 0.00 85 1008.7
20260508080535 2 149 6.4 0.0 0.00 0.00 0.00 85 1008.8
20260508080041 2 136 8.0 0.0 0.00 0.00 0.00 87 1008.7
20260508075536 2 130 8.0 0.0 0.00 0.00 0.00 87 1008.6
20260508075039 2 119 6.4 0.0 0.00 0.00 0.00 87 1008.7
20260508074535 2 135 4.8 0.0 0.00 0.00 0.00 86 1008.6
20260508074035 2 149 4.8 0.0 0.00 0.00 0.00 85 1008.6
20260508073535 2 148 3.2 0.0 0.00 0.00 0.00 85 1008.6
20260508073038 2 146 1.6 0.0 0.00 0.00 0.00 86 1008.6
20260508072534 1 146 4.8 0.0 0.00 0.00 0.00 86 1008.6
20260508072034 1 145 8.0 0.0 0.00 0.00 0.00 85 1008.6
20260508071541 1 136 6.4 0.0 0.00 0.00 0.00 86 1008.5
20260508071033 1 150 3.2 0.0 0.00 0.00 0.00 86 1008.5
20260508070533 1 150 3.2 0.0 0.00 0.00 0.00 86 1008.5
20260508070035 1 150 3.2 0.0 0.00 0.00 0.00 86 1008.5
20260508065534 1 140 4.8 0.0 0.00 0.00 0.00 86 1008.4
20260508065033 1 141 4.8 0.0 0.00 0.00 0.00 86 1008.4
20260508064533 1 138 4.8 0.0 0.00 0.00 0.00 86 1008.4
20260508064033 1 145 4.8 0.0 0.00 0.00 0.00 87 1008.5
20260508063534 1 360 4.8 0.0 0.00 0.00 0.00 87 1008.5
20260508063045 1 360 4.8 0.0 0.00 0.00 0.00 87 1008.6
20260508062533 1 360 4.8 0.0 0.00 0.00 0.00 87 1008.6
20260508062032 1 360 4.8 0.0 0.00 0.00 0.00 88 1008.6
20260508061532 1 360 6.4 0.0 0.00 0.00 0.00 88 1008.6
20260508061032 1 360 6.4 0.0 0.00 0.00 0.00 87 1008.6
20260508060531 1 360 6.4 0.0 0.00 0.00 0.00 86 1008.7
20260508060035 1 141 4.8 0.0 0.00 0.00 0.00 86 1008.7
20260508055531 1 143 6.4 0.0 0.00 0.00 0.00 86 1008.8
20260508055035 1 360 8.0 0.0 0.00 0.00 0.00 85 1008.7
20260508054531 1 141 8.0 0.0 0.00 0.00 0.00 85 1008.8
20260508054028 1 360 6.4 0.0 0.00 0.00 0.00 84 1008.8
20260508053527 1 360 4.8 0.0 0.00 0.00 0.00 83 1008.8
20260508053027 1 360 4.8 0.0 0.00 0.00 0.00 83 1008.8
20260508052529 1 360 4.8 0.0 0.00 0.00 0.00 83 1008.8
20260508052024 1 360 4.8 0.0 0.00 0.00 0.00 83 1008.7
20260508051524 1 360 4.8 0.0 0.00 0.00 0.00 83 1008.8
20260508051023 1 360 4.8 0.0 0.00 0.00 0.00 82 1008.7
20260508050522 2 360 6.4 0.0 0.00 0.00 0.00 81 1008.7
20260508050022 2 146 8.0 0.0 0.00 0.00 0.00 80 1008.7
20260508045522 2 144 8.0 0.0 0.00 0.00 0.00 81 1008.6
20260508045021 2 133 8.0 0.0 0.00 0.00 0.00 80 1008.6
20260508044526 2 144 8.0 0.0 0.00 0.00 0.00 79 1008.8
20260508044019 2 138 6.4 0.0 0.00 0.00 0.00 78 1008.7
20260508043516 2 146 6.4 0.0 0.00 0.00 0.00 77 1008.7
20260508043015 3 144 6.4 0.0 0.00 0.00 0.00 76 1008.6
20260508042518 3 144 4.8 0.0 0.00 0.00 0.00 76 1008.4
20260508042012 3 146 3.2 0.0 0.00 0.00 0.00 75 1008.4
20260508041512 3 146 6.4 0.0 0.00 0.00 0.00 74 1008.4
20260508041010 4 145 6.4 0.0 0.00 0.00 0.00 74 1008.3
20260508040509 4 146 6.4 0.0 0.00 0.00 0.00 73 1008.3
20260508040008 5 130 6.4 0.0 0.00 0.00 0.00 72 1008.3
20260508035507 5 130 6.4 0.0 0.00 0.00 0.00 71 1008.3
20260508035007 5 128 3.2 0.0 0.00 0.00 0.00 70 1008.4
20260508034507 6 227 4.8 0.0 0.00 0.00 0.00 68 1008.3
20260508034008 6 296 8.0 0.0 0.00 0.00 0.00 67 1008.3
20260508033507 6 290 11.3 0.0 0.00 0.00 0.00 65 1008.4
20260508033007 7 281 12.9 0.0 0.00 0.00 0.00 65 1008.4
20260508032508 7 276 12.9 0.0 0.00 0.00 0.00 66 1008.4
20260508032006 7 277 12.9 0.0 0.00 0.00 0.00 67 1008.5
20260508031507 7 284 12.9 0.0 0.00 0.00 0.00 66 1008.4
20260508031008 7 284 12.9 0.0 0.00 0.00 0.00 66 1008.3
20260508030510 7 287 12.9 0.0 0.00 0.00 0.00 63 1008.3
20260508030007 7 285 14.5 0.0 0.00 0.00 0.00 66 1008.2
20260508025505 7 285 14.5 0.0 0.00 0.00 0.00 66 1008.4
20260508025005 7 282 16.1 0.0 0.00 0.00 0.00 64 1008.4
20260508024505 7 274 17.7 0.0 0.00 0.00 0.00 65 1008.4
20260508024005 7 271 17.7 0.0 0.00 0.00 0.00 62 1008.5
20260508023505 7 275 19.3 0.0 0.00 0.00 0.00 64 1008.4
20260508023007 8 267 19.3 0.0 0.00 0.00 0.00 64 1008.6
20260508022504 8 268 19.3 0.0 0.00 0.00 0.00 65 1008.5
20260508022006 8 273 17.7 0.0 0.00 0.00 0.00 64 1008.6
20260508021505 8 270 17.7 0.0 0.00 0.00 0.00 63 1008.5
20260508021005 8 273 17.7 0.0 0.00 0.00 0.00 63 1008.5
20260508020504 8 279 16.1 0.0 0.00 0.00 0.00 62 1008.4
20260508020005 8 277 17.7 0.0 0.00 0.00 0.00 60 1008.4
20260508015504 8 276 19.3 0.0 0.00 0.00 0.00 63 1008.4
20260508015004 8 280 20.9 0.0 0.00 0.00 0.00 60 1008.4
20260508014505 8 276 20.9 0.0 0.00 0.00 0.00 60 1008.4
20260508014004 8 278 20.9 0.0 0.00 0.00 0.00 62 1008.3
20260508013502 8 270 20.9 0.0 0.00 0.00 0.00 60 1008.3
20260508013002 8 277 20.9 0.0 0.00 0.00 0.00 60 1008.3
20260508012505 8 279 20.9 0.0 0.00 0.00 0.00 59 1008.2
20260508012002 8 270 22.5 0.0 0.00 0.00 0.00 59 1008.2
20260508011502 8 271 22.5 0.0 0.00 0.00 0.00 61 1008.1
20260508011002 8 267 22.5 0.0 0.00 0.00 0.00 60 1008.1
20260508010501 8 271 22.5 0.0 0.00 0.00 0.00 59 1008.1
20260508010001 8 275 22.5 0.0 0.00 0.00 0.00 58 1008.1
20260508005501 8 267 22.5 0.0 0.00 0.00 0.00 58 1008.0
20260508005003 8 276 24.1 0.0 0.00 0.00 0.00 60 1007.9
20260508004501 8 271 22.5 0.0 0.00 0.00 0.00 60 1007.8
20260508004003 9 281 20.9 0.0 0.00 0.00 0.00 60 1007.7
20260508003600 9 269 19.3 0.0 0.00 0.00 0.00 61 1007.7
20260508003107 9 279 19.3 0.0 0.00 0.00 0.00 59 1007.6
20260508002603 9 275 20.9 0.0 0.00 0.00 0.00 58 1007.6
20260508002100 9 292 22.5 0.0 0.00 0.00 0.00 57 1007.5
20260508001600 9 294 24.1 0.0 0.00 0.00 0.00 53 1007.3
20260508001100 9 266 25.7 0.0 0.00 0.00 0.00 55 1007.3
20260508000600 10 275 27.4 0.0 0.00 0.00 0.00 59 1007.3
20260508000100 10 274 30.6 0.0 0.00 0.00 0.00 58 1007.3
20260507235559 10 274 30.6 0.0 0.00 0.00 0.00 57 1007.3
20260507235059 10 277 30.6 0.0 0.00 0.00 0.00 55 1007.3
20260507234559 10 274 30.6 0.0 0.00 0.00 0.00 56 1007.2
20260507234059 10 273 32.2 0.0 0.00 0.00 0.00 55 1007.1
20260507233558 10 272 33.8 0.0 0.00 0.00 0.00 53 1007.1
20260507233058 10 280 35.4 0.0 0.00 0.00 0.00 53 1007.1
20260507232558 10 273 37.0 0.0 0.00 0.00 0.00 54 1007.1
20260507232058 10 286 37.0 0.0 0.00 0.00 0.00 53 1007.0
20260507231600 10 297 37.0 0.0 0.00 0.00 0.00 51 1007.1
20260507231058 10 301 33.8 0.0 0.00 0.00 0.00 53 1007.1
20260507230602 10 290 32.2 0.0 0.00 0.00 0.00 50 1007.1
20260507230104 10 300 32.2 0.0 0.00 0.00 0.00 49 1007.0
20260507225558 10 280 30.6 0.0 0.00 0.00 0.00 53 1007.1
20260507225057 10 304 33.8 0.0 0.00 0.00 0.00 53 1007.1
20260507224603 11 296 35.4 0.0 0.00 0.00 0.00 51 1007.1
20260507224057 11 289 30.6 0.0 0.00 0.00 0.00 51 1007.0
20260507223556 11 278 29.0 0.0 0.00 0.00 0.00 55 1007.0
20260507223056 11 283 33.8 0.0 0.00 0.00 0.00 56 1007.0
20260507222559 11 281 35.4 0.0 0.00 0.00 0.00 53 1006.9
20260507222058 11 275 35.4 0.0 0.00 0.00 0.00 55 1007.0
20260507221556 11 290 35.4 0.0 0.00 0.00 0.00 50 1007.1
20260507221056 11 276 29.0 0.0 0.00 0.00 0.00 53 1007.0
20260507220555 11 262 29.0 0.0 0.00 0.00 0.00 54 1007.1
20260507220056 11 292 29.0 0.0 0.00 0.00 0.00 52 1007.1
20260507215555 11 280 32.2 0.0 0.00 0.00 0.00 57 1007.1
20260507215055 11 285 37.0 0.0 0.00 0.00 0.00 53 1007.1
20260507214604 12 275 35.4 0.0 0.00 0.00 0.00 51 1007.0
20260507214055 12 279 35.4 0.0 0.00 0.00 0.00 54 1007.0
20260507213554 12 265 37.0 0.0 0.00 0.00 0.00 54 1007.0
20260507213056 12 257 35.4 0.0 0.00 0.00 0.00 54 1007.0
20260507212554 12 259 32.2 0.0 0.00 0.00 0.00 56 1007.0
20260507212057 12 277 37.0 0.0 0.00 0.00 0.00 56 1007.0
20260507211559 12 267 37.0 0.0 0.00 0.00 0.00 55 1007.0
20260507211053 12 264 32.2 0.0 0.00 0.00 0.00 58 1007.0
20260507210553 12 265 35.4 0.0 0.00 0.00 0.00 55 1007.0
20260507210100 12 273 35.4 0.0 0.00 0.00 0.00 56 1006.9
20260507205553 12 272 35.4 0.0 0.00 0.00 0.00 57 1007.0
20260507205052 12 278 33.8 0.0 0.00 0.00 0.00 57 1007.0
20260507204555 12 271 33.8 0.0 0.00 0.00 0.00 60 1007.0
20260507204055 12 267 33.8 0.0 0.00 0.00 0.00 59 1007.0
20260507203551 11 263 33.8 0.0 0.00 0.00 0.00 57 1006.9
20260507203105 12 273 35.4 0.0 0.00 0.00 0.00 59 1007.0
20260507202551 11 255 35.4 0.0 0.00 0.00 0.00 58 1007.0
20260507202051 11 276 32.2 0.0 0.00 0.00 0.00 61 1007.0
20260507201558 11 274 29.0 0.0 0.00 0.00 0.00 58 1006.9
20260507201052 11 274 27.4 0.0 0.00 0.00 0.00 60 1007.1
20260507200551 11 302 32.2 0.0 0.00 0.00 0.00 55 1007.2
20260507200104 11 308 38.6 0.0 0.00 0.00 0.00 50 1007.3
20260507195548 12 274 37.0 0.0 0.00 0.00 0.00 58 1007.2
20260507195049 11 265 32.2 0.0 0.00 0.00 0.00 61 1007.2
20260507194548 11 285 25.7 0.0 0.00 0.00 0.00 61 1007.4
20260507194047 11 304 25.7 0.0 0.00 0.00 0.00 58 1007.4
20260507193546 11 283 29.0 0.0 0.00 0.00 0.00 58 1007.5
20260507193049 11 282 32.2 0.0 0.00 0.00 0.00 55 1007.4
20260507192546 11 285 30.6 0.0 0.00 0.00 0.00 60 1007.5
20260507192045 11 317 33.8 0.0 0.00 0.00 0.00 54 1007.4
20260507191546 11 259 35.4 0.0 0.00 0.00 0.00 60 1007.5
20260507191046 11 268 35.4 0.0 0.00 0.00 0.00 60 1007.4
20260507190548 11 271 33.8 0.0 0.00 0.00 0.00 57 1007.4
20260507190048 12 263 33.8 0.0 0.00 0.00 0.00 61 1007.5
20260507185549 12 278 32.2 0.0 0.00 0.00 0.00 59 1007.6
20260507185046 12 264 32.2 0.0 0.00 0.00 0.00 62 1007.6
20260507184547 11 279 30.6 0.0 0.00 0.00 0.00 64 1007.7
20260507184043 11 281 24.1 0.0 0.00 0.00 0.00 61 1007.7
20260507183541 11 259 22.5 0.0 0.00 0.00 0.00 57 1007.7
20260507183047 11 292 25.7 0.0 0.00 0.00 0.00 59 1007.8
20260507182541 11 286 25.7 0.0 0.00 0.00 0.00 64 1007.9
20260507182044 11 296 27.4 0.0 0.00 0.00 0.00 64 1008.0
20260507181539 11 282 29.0 0.0 0.00 0.00 0.00 59 1008.0
20260507181039 11 264 30.6 0.0 0.00 0.00 0.00 62 1008.1
20260507180542 11 275 30.6 0.0 0.00 0.00 0.00 60 1008.0
20260507180046 11 278 29.0 0.0 0.00 0.00 0.00 65 1008.0
20260507175542 10 293 29.0 0.0 0.00 0.00 0.00 67 1008.1
20260507175039 10 296 27.4 0.0 0.00 0.00 0.00 60 1008.1
20260507174539 10 279 29.0 0.0 0.00 0.00 0.00 64 1008.2
20260507174038 10 281 33.8 0.0 0.00 0.00 0.00 62 1008.3
20260507173538 10 281 32.2 0.0 0.00 0.00 0.00 64 1008.3
20260507173038 10 300 30.6 0.0 0.00 0.00 0.00 61 1008.3
20260507172541 10 290 29.0 0.0 0.00 0.00 0.00 59 1008.4
20260507172037 11 288 29.0 0.0 0.00 0.00 0.00 62 1008.3
20260507171537 11 268 32.2 0.0 0.00 0.00 0.00 63 1008.4
20260507171038 11 273 33.8 0.0 0.00 0.00 0.00 61 1008.4
20260507170538 11 274 35.4 0.0 0.00 0.00 0.00 62 1008.4
20260507170038 11 275 32.2 0.0 0.00 0.00 0.00 59 1008.4
20260507165536 11 282 25.7 0.0 0.00 0.00 0.00 66 1008.5
20260507165038 11 261 24.1 0.0 0.00 0.00 0.00 61 1008.5
20260507164542 11 279 27.4 0.0 0.00 0.00 0.00 62 1008.6
20260507164034 10 271 27.4 0.0 0.00 0.00 0.00 66 1008.5
20260507163533 10 279 25.7 0.0 0.00 0.00 0.00 62 1008.6
20260507163033 10 276 25.7 0.0 0.00 0.00 0.00 66 1008.7
20260507162533 10 277 29.0 0.0 0.00 0.00 0.00 63 1008.7
20260507162033 10 275 30.6 0.0 0.00 0.00 0.00 61 1008.8
20260507161532 10 272 29.0 0.0 0.00 0.00 0.00 64 1008.8
20260507161032 10 267 30.6 0.0 0.00 0.00 0.00 63 1009.0
20260507160533 10 252 29.0 0.0 0.00 0.00 0.00 65 1009.0
20260507160032 10 266 22.5 0.0 0.00 0.00 0.00 64 1009.0
20260507155532 10 281 24.1 0.0 0.00 0.00 0.00 64 1009.1
20260507155032 10 286 25.7 0.0 0.00 0.00 0.00 66 1009.1
20260507154532 10 276 20.9 0.0 0.00 0.00 0.00 66 1009.1
20260507154031 10 271 22.5 0.0 0.00 0.00 0.00 63 1009.1
20260507153530 10 297 25.7 0.0 0.00 0.00 0.00 60 1009.1
20260507153033 10 271 30.6 0.0 0.00 0.00 0.00 65 1009.0
20260507152530 10 284 33.8 0.0 0.00 0.00 0.00 63 1009.2
20260507152029 10 270 29.0 0.0 0.00 0.00 0.00 64 1009.3
20260507151528 10 276 22.5 0.0 0.00 0.00 0.00 66 1009.4
20260507151027 10 318 24.1 0.0 0.00 0.00 0.00 66 1009.5
20260507150527 10 328 27.4 0.0 0.00 0.00 0.00 63 1009.4
20260507150028 9 311 29.0 0.0 0.00 0.00 0.00 65 1009.5
20260507145526 9 314 30.6 0.0 0.00 0.00 0.00 63 1009.5
20260507145025 9 333 29.0 0.0 0.00 0.00 0.00 64 1009.5
20260507144530 9 313 29.0 0.0 0.00 0.00 0.00 62 1009.4
20260507144026 9 317 30.6 0.0 0.00 0.00 0.00 61 1009.3
20260507143524 9 302 29.0 0.0 0.00 0.00 0.00 60 1009.4
20260507143031 9 321 29.0 0.0 0.00 0.00 0.00 60 1009.4
20260507142523 9 306 27.4 0.0 0.00 0.00 0.00 63 1009.4
20260507142022 8 305 27.4 0.0 0.00 0.00 0.00 59 1009.4
20260507141522 8 315 24.1 0.0 0.00 0.00 0.00 64 1009.6
20260507141021 8 316 20.9 0.0 0.00 0.00 0.00 60 1009.6
20260507140520 8 326 22.5 0.0 0.00 0.00 0.00 60 1009.5
20260507140021 8 317 22.5 0.0 0.00 0.00 0.00 59 1009.4
20260507135518 8 298 24.1 0.0 0.00 0.00 0.00 62 1009.5
20260507135018 8 310 25.7 0.0 0.00 0.00 0.00 61 1009.5
20260507134519 8 302 24.1 0.0 0.00 0.00 0.00 58 1009.5
20260507134016 7 289 24.1 0.0 0.00 0.00 0.00 59 1009.5
20260507133515 7 319 24.1 0.0 0.00 0.00 0.00 65 1009.6
20260507133015 7 313 25.7 0.0 0.00 0.00 0.00 61 1009.7
20260507132514 7 294 25.7 0.0 0.00 0.00 0.00 63 1009.7
20260507132014 7 295 22.5 0.0 0.00 0.00 0.00 65 1009.7
20260507131516 7 313 19.3 0.0 0.00 0.00 0.00 62 1009.8
20260507131014 7 317 16.1 0.0 0.00 0.00 0.00 66 1009.7
20260507130513 6 319 14.5 0.0 0.00 0.00 0.00 62 1009.7
20260507130013 6 306 14.5 0.0 0.00 0.00 0.00 62 1009.7
20260507125513 6 309 16.1 0.0 0.00 0.00 0.00 61 1009.8
20260507125012 6 314 19.3 0.0 0.00 0.00 0.00 63 1009.8
20260507124512 6 295 20.9 0.0 0.00 0.00 0.00 69 1009.7
20260507124012 6 294 22.5 0.0 0.00 0.00 0.00 66 1009.7
20260507123514 6 312 24.1 0.0 0.00 0.00 0.00 65 1009.7
20260507123013 6 307 20.9 0.0 0.00 0.00 0.00 66 1009.6
20260507122513 6 297 17.7 0.0 0.00 0.00 0.00 68 1009.6